TimeCDT,TemperatureF,Dew PointF,Humidity,Sea Level PressureIn,VisibilityMPH,Wind Direction,Wind SpeedMPH,Gust SpeedMPH,PrecipitationIn,Events,Conditions,WindDirDegrees,DateUTC
12:58 AM,30.9,20.8,66,30.14,10.0,NNW,10.4,-,N/A,,Clear,330,2013-03-11 05:58:00
1:58 AM,32.4,19.2,58,30.13,10.0,NW,10.4,-,N/A,,Clear,310,2013-03-11 06:58:00
2:58 AM,31.1,18.9,61,30.12,10.0,NW,9.2,-,N/A,,Clear,320,2013-03-11 07:58:00
3:58 AM,30.0,18.1,61,30.11,10.0,NW,5.8,-,N/A,,Clear,320,2013-03-11 08:58:00
4:58 AM,27.1,18.7,70,30.11,10.0,NW,10.4,-,N/A,,Clear,310,2013-03-11 09:58:00
5:58 AM,27.9,17.6,65,30.11,10.0,North,3.5,-,N/A,,Clear,350,2013-03-11 10:58:00
6:58 AM,21.4,16.7,82,30.12,10.0,North,4.6,-,N/A,,Clear,350,2013-03-11 11:58:00
7:58 AM,21.6,17.4,84,30.12,10.0,West,4.6,-,N/A,,Clear,280,2013-03-11 12:58:00
8:58 AM,29.1,19.4,67,30.13,10.0,SSW,4.6,-,N/A,,Clear,210,2013-03-11 13:58:00
9:58 AM,33.6,21.7,62,30.13,10.0,West,4.6,-,N/A,,Clear,260,2013-03-11 14:58:00
10:58 AM,38.1,21.4,51,30.13,10.0,Variable,4.6,-,N/A,,Clear,0,2013-03-11 15:58:00
11:58 AM,41.9,23.2,47,30.11,10.0,Variable,2.3,-,N/A,,Clear,0,2013-03-11 16:58:00
12:58 PM,47.8,27.5,45,30.09,10.0,SSW,6.9,-,N/A,,Clear,200,2013-03-11 17:58:00
1:58 PM,52.0,31.1,45,30.06,10.0,South,6.9,-,N/A,,Clear,180,2013-03-11 18:58:00
2:58 PM,56.3,31.3,39,30.01,10.0,South,9.2,-,N/A,,Clear,190,2013-03-11 19:58:00
3:58 PM,59.7,30.2,33,29.99,10.0,South,8.1,-,N/A,,Clear,180,2013-03-11 20:58:00
4:58 PM,63.7,30.9,29,29.95,10.0,South,9.2,-,N/A,,Clear,170,2013-03-11 21:58:00
5:58 PM,64.2,30.4,28,29.95,10.0,SSE,10.4,-,N/A,,Clear,160,2013-03-11 22:58:00
6:58 PM,61.7,34.3,36,29.95,10.0,SE,8.1,-,N/A,,Clear,130,2013-03-11 23:58:00
7:58 PM,52.9,34.5,50,29.94,10.0,ESE,11.5,-,N/A,,Clear,110,2013-03-12 00:58:00
8:58 PM,49.6,32.5,52,29.95,10.0,ESE,12.7,-,N/A,,Clear,110,2013-03-12 01:58:00
9:58 PM,47.8,32.2,55,29.96,10.0,ESE,12.7,-,N/A,,Clear,110,2013-03-12 02:58:00
10:58 PM,45.9,31.5,57,29.97,10.0,ESE,12.7,-,N/A,,Clear,120,2013-03-12 03:58:00
11:58 PM,45.3,30.2,56,29.98,10.0,ESE,10.4,-,N/A,,Clear,120,2013-03-12 04:58:00